THOR ABLESTAR DEB, 124

Orbit data source: Space-Track

THOR ABLESTAR DEB, 124 is space debris in LEO originally from a launch on Thu, 29 Jun 1961 UTC launched from the Air Force Eastern Test Range (AFETR). Debris objects in space refer to the collection of defunct objects orbiting the Earth. Examples of debris include non-operational satellites, rocket bodies, and fragments generated from explosions, collisions, or faulty payload assembly.

Loading next visibility...
Identifier
124, 1961-015J
Orbit
LEO
Country
Flag of USUS
Related business
Manufacturer
Unknown
Mission
Spacecraft
Bus & Motor
Unknown
Mass
Unknown
Launch date (UTC)
1961-06-29 (65 years ago)
Launch vehicle
Unknown
Launch site
Air Force Eastern Test Range (AFETR)
Object type
Payload
Rocket body
Debris
Shape & HBR
Unknown shape, 0.2 m
Radar Cross Section
Small (<0.1 m²)

Expand to show TLE details & history
Last TLE update: 8 hours ago

TLE from 8 hours ago
0 THOR ABLESTAR DEB
1   124U 61015J   26126.06855316  .00000593  00000-0  22830-3 0  9996
2   124  66.5456 355.5457 0066595 167.2962 192.9836 14.35952231352888
Epoch: 2026-05-06T01:38Z
TLE epoch observation values (Epoch: 2026-05-06T01:38:42.993Z)
Latitude
Longitude
106.93221°
Altitude
820.424 km
Speed
7.419 km/s
True Right ascension
23h 42m 10s
True Declination
0° 00' 00"
Sunlit
Object was in daylight at epoch
Visualization orbit readout
Latitude
Unknown
Longitude
Unknown
Altitude
Unknown
Speed
Unknown
Apparent Right ascension
Unknown
Apparent Declination
Unknown
Sunlit
N/A
Visualization observer readout
Local Sidereal Time
17:51:04
Azimuth
Unknown
Elevation
Unknown
Doppler factor
Unknown
Orbital elements
Apogee altitude
817.897 km
Perigee altitude
722.687 km
Semi-major axis
7,148.429 km
Eccentricity
0.00666
Inclination
66.5456°
RAAN
355.5457°
Arg. of periapsis
167.2962°
True anomaly
192.81353°
Mean anomaly
192.9836°
Eccentric anomaly
192.89843°
Mean motion
3.5911 °/min
Orbital period
100.25 mins
BSTAR
0.0002283
Loading maneuver chart data...
Computing Atmospheric mass density...
Loading historical data...
Loading historical data...
Loading historical data...
Loading historical data...
Loading historical data...
Loading historical data...
Loading historical data...

Documentation

Showing up to 5 results
|